Wind_Speed
9 9 10 10 10 9 9 9 9 9 9 9 10 11 11 11 12 12 12 13 13 13 14 14 14 15 15 15 15 14 14 14 14 14 14 13 13 13 13 13 13 13 13
10 10 10 11 10 10 10 10 10 10 10 11 11 12 12 12 12 13 13 14 14 14 14 15 15 15 15 15 15 14 14 15 14 14 14 13 13 14 13 14 14 14 14
11 11 11 11 11 10 10 11 11 11 11 12 13 13 12 13 13 13 13 14 14 15 15 15 15 15 15 15 15 15 15 15 15 15 15 14 14 14 14 14 14 14 14
12 12 12 12 12 11 11 12 12 12 12 13 13 13 13 13 14 14 14 14 14 15 15 15 16 16 16 16 15 16 16 16 15 15 15 15 15 14 14 14 14 14 15
12 12 12 13 12 12 12 13 13 13 13 14 14 14 14 15 15 15 15 15 15 15 15 15 16 16 16 16 16 16 17 17 16 15 15 15 15 15 15 15 16 15 15
13 12 13 13 13 13 14 14 14 14 14 14 15 15 15 16 16 16 16 16 16 15 15 15 15 16 17 17 17 17 17 17 16 16 16 16 16 16 16 16 16 16 16
13 13 14 14 14 15 15 15 14 15 15 15 15 16 16 17 17 17 17 16 16 16 15 16 16 16 17 17 17 17 17 17 17 17 17 17 17 16 17 17 17 17 17
13 14 14 15 15 15 15 15 15 16 16 16 16 17 17 17 17 17 17 17 16 16 16 16 16 17 17 16 16 17 17 18 18 18 18 18 18 17 18 18 18 17 17
14 14 15 15 16 16 16 17 17 17 17 18 18 18 17 17 17 17 17 18 17 17 17 17 17 17 17 17 17 18 18 18 18 19 19 19 20 19 19 19 19 18 18
15 15 16 16 16 16 17 18 18 18 19 20 19 19 18 18 18 18 18 18 18 17 18 18 18 18 18 18 18 18 19 19 19 20 20 21 20 20 20 20 19 20 19
16 17 18 17 17 17 18 19 19 20 20 20 20 21 20 19 19 19 19 18 18 18 18 19 19 19 19 19 19 19 19 20 20 20 20 20 20 20 20 20 20 20 20
17 17 18 18 18 18 18 19 19 20 20 20 21 22 21 20 20 21 20 20 20 20 19 20 20 20 20 20 20 20 21 20 20 20 21 21 21 21 21 21 20 21 22
19 18 18 19 19 19 19 19 20 20 20 21 22 20 20 20 21 21 21 21 21 21 21 21 21 21 21 21 21 21 21 21 21 21 21 22 22 22 22 23 22 22 23
20 20 19 19 20 20 20 20 21 21 21 21 21 21 21 21 22 22 22 22 23 22 22 22 22 22 22 22 22 23 23 22 22 23 24 24 24 24 24 24 23 23 23
21 21 21 20 20 21 21 22 22 22 22 23 22 22 23 23 23 24 24 24 24 24 24 24 24 24 24 24 24 24 24 24 23 24 24 25 26 26 25 24 24 25 25
21 22 22 22 22 22 22 23 23 23 24 24 23 24 24 24 25 25 26 26 26 26 25 25 25 25 25 25 25 25 25 24 25 25 25 26 26 26 26 26 26 27 27
22 23 23 23 24 24 24 24 24 24 25 25 25 25 25 25 26 27 27 27 27 27 26 26 26 26 26 26 26 26 26 25 25 25 25 25 26 26 27 27 27 27 28
23 24 25 25 25 25 25 25 25 26 26 26 26 26 26 27 27 28 28 28 28 28 28 27 27 27 27 27 27 27 27 27 26 26 26 25 26 27 28 29 28 27 27
23 24 24 25 26 26 26 26 27 27 27 27 27 27 28 28 29 29 29 30 29 29 28 28 27 27 27 27 27 28 27 27 27 27 27 27 28 28 29 30 30 30 30
24 25 25 26 26 26 27 27 28 28 29 28 28 28 28 28 29 29 30 30 30 30 29 29 28 28 28 27 28 28 29 29 29 29 30 30 29 29 30 30 31 31 31
24 25 26 26 27 27 28 29 29 29 29 29 28 29 29 29 29 29 29 30 30 30 30 30 30 30 30 29 29 30 30 31 31 32 32 32 31 31 32 31 32 32 32
25 26 26 26 27 27 28 29 29 29 29 29 29 29 29 29 29 29 29 30 30 30 30 30 30 30 30 30 30 31 31 32 33 33 33 33 34 34 34 33 33 33 33
26 26 26 26 27 28 28 29 29 29 29 29 29 29 29 30 29 29 29 30 31 31 31 31 30 30 30 31 31 31 31 32 33 33 34 34 34 34 34 34 34 34 34
26 26 26 27 27 28 28 29 29 29 29 29 29 29 29 29 29 29 29 30 31 31 32 32 31 30 31 31 32 31 31 31 33 34 35 35 35 35 35 34 34 34 34
26 26 26 27 28 29 29 28 29 28 29 29 29 29 28 29 29 29 29 30 30 31 32 33 33 32 32 32 33 32 32 32 33 34 33 34 35 36 36 35 35 35 35
26 27 27 27 28 29 29 29 29 29 29 30 29 29 29 29 29 30 30 30 31 32 32 33 33 34 34 33 33 34 34 34 34 34 34 34 34 35 35 35 36 36 36
Wind_Direction
264 265 271 274 271 272 276 279 282 284 284 286 285 287 290 289 288 289 291 290 291 291 290 289 287 287 287 287 288 287 285 283 281 278 275 272 270 269 268 268 267 268 268
265 267 270 271 269 272 276 280 283 283 284 284 285 287 286 289 290 289 290 291 292 292 290 288 287 285 286 285 283 285 284 283 281 279 276 274 272 271 269 268 268 267 268
266 266 267 269 271 272 275 280 283 285 285 286 288 288 288 289 289 290 294 293 292 289 287 286 286 286 285 282 281 283 283 283 281 278 274 272 271 271 270 269 268 267 268
266 268 271 272 272 273 275 279 284 287 286 288 289 290 289 290 290 289 291 293 291 290 288 286 287 287 286 285 285 286 284 284 280 276 275 273 271 268 266 267 267 268 268
267 270 274 274 271 271 276 281 283 285 287 288 290 290 290 292 292 290 291 291 289 289 288 288 288 288 288 287 286 287 285 282 277 274 273 272 272 269 264 263 265 266 266
271 273 273 273 271 272 276 280 284 285 286 287 290 291 290 292 291 291 291 290 289 288 287 287 288 289 289 287 288 288 285 281 276 274 272 270 271 269 265 264 264 264 266
270 271 274 274 272 274 276 278 282 284 285 287 291 294 293 292 291 290 290 289 289 288 287 287 288 290 290 288 286 288 288 282 276 272 270 269 269 268 266 265 263 263 265
270 273 277 276 274 275 276 278 282 283 285 289 293 294 294 295 293 291 288 288 287 287 286 287 288 289 289 288 285 285 286 283 276 270 267 267 267 267 266 266 263 261 263
272 276 279 278 275 276 278 279 280 282 284 288 291 291 292 292 291 290 288 287 284 285 284 286 287 287 287 287 287 287 285 282 277 270 268 266 265 266 265 266 264 262 262
278 278 280 280 276 276 279 280 280 283 286 287 286 287 289 290 289 288 287 286 285 285 285 285 286 285 286 286 287 287 284 282 278 273 269 267 265 265 265 265 264 262 264
278 279 280 280 278 277 278 281 282 283 284 285 284 285 287 288 288 288 286 284 284 286 286 284 283 283 284 287 288 286 283 281 279 276 271 266 266 266 266 266 264 262 262
277 279 280 280 278 277 278 279 281 281 282 285 286 285 285 286 287 287 287 285 284 284 284 283 281 281 283 286 286 284 282 280 279 276 272 267 265 265 268 266 264 263 260
278 280 280 280 281 280 281 283 284 282 282 284 286 287 285 286 287 287 286 284 283 284 283 283 282 280 281 284 286 283 282 279 278 275 272 269 267 266 267 268 266 264 263
280 280 280 282 283 282 282 283 285 285 284 283 285 286 286 286 287 287 285 284 283 283 282 283 282 280 279 280 283 282 282 280 277 274 272 269 267 266 265 267 267 265 263
281 281 282 283 285 285 284 285 285 286 286 285 287 286 286 286 285 285 284 284 284 283 282 281 281 280 279 279 280 281 280 278 277 275 272 270 269 266 264 266 266 266 264
280 281 282 284 286 286 286 287 287 286 286 286 287 287 287 287 286 284 284 283 284 284 283 281 279 278 279 279 278 279 277 276 276 275 274 271 270 268 265 265 266 266 266
281 282 282 284 285 285 286 286 287 287 287 286 285 287 288 288 288 286 285 285 285 283 283 282 279 277 277 278 276 276 275 274 274 273 272 271 270 268 268 267 267 266 267
282 283 284 285 285 285 285 286 286 286 287 287 286 287 287 288 288 288 287 287 287 285 284 282 280 279 278 276 274 275 274 273 273 273 273 272 271 270 269 268 268 267 268
283 285 286 286 287 287 286 286 288 288 289 288 288 288 289 289 288 288 287 287 286 286 284 283 281 281 279 276 275 275 276 273 272 272 272 272 272 271 270 269 268 268 268
284 286 287 287 288 288 288 288 288 288 289 290 290 290 291 290 289 287 286 285 285 284 283 281 281 280 279 277 275 274 275 275 273 272 271 271 272 272 271 271 271 270 269
284 286 287 287 288 288 289 289 288 288 289 290 290 290 291 291 289 287 286 285 283 282 282 281 280 280 279 278 276 275 275 275 273 272 271 270 271 272 273 272 272 271 270
286 287 287 287 289 290 290 290 289 289 289 288 289 290 290 291 289 287 286 285 283 282 282 282 281 280 279 278 277 277 277 276 275 273 271 270 271 271 272 272 272 271 270
286 286 287 288 290 291 291 291 291 291 289 289 289 290 290 291 289 287 286 284 283 282 282 282 281 280 279 279 279 278 278 277 275 274 272 271 271 271 271 271 272 271 270
287 288 289 290 291 293 292 293 293 291 290 290 291 291 291 292 291 288 285 285 285 283 281 281 281 281 280 280 278 278 278 278 278 276 274 272 270 271 271 271 271 271 270
288 290 292 293 292 293 294 293 293 292 291 291 291 291 291 292 291 290 289 288 286 285 283 281 281 281 281 281 279 278 279 278 278 278 275 274 272 271 271 270 270 269 269
291 293 293 294 294 294 294 294 293 294 293 292 291 291 291 292 292 292 291 289 288 286 285 285 284 283 282 281 280 279 279 279 278 277 276 276 275 273 270 269 269 269 269
Height
5840 5840 5840 5840 5840 5840 5840 5840 5839 5838 5838 5837 5837 5836 5835 5835 5834 5833 5832 5831 5830 5830 5829 5828 5827 5826 5825 5824 5824 5823 5822 5821 5821 5820 5820 5820 5819 5820 5820 5820 5820 5820 5820
5838 5838 5837 5837 5837 5837 5837 5837 5836 5836 5835 5835 5834 5833 5832 5832 5831 5830 5829 5828 5827 5826 5825 5824 5823 5822 5821 5820 5820 5819 5818 5817 5817 5816 5816 5816 5816 5816 5816 5816 5816 5817 5817
5835 5835 5835 5835 5834 5835 5835 5834 5834 5833 5832 5832 5831 5830 5829 5828 5827 5826 5825 5824 5823 5822 5821 5820 5819 5818 5817 5816 5815 5815 5814 5813 5812 5812 5812 5812 5812 5812 5812 5812 5812 5813 5813
5832 5832 5832 5832 5832 5832 5831 5831 5831 5830 5829 5828 5827 5827 5826 5825 5824 5823 5822 5821 5819 5818 5817 5816 5814 5813 5812 5811 5811 5810 5809 5809 5808 5807 5807 5808 5808 5808 5808 5808 5808 5809 5809
5829 5829 5829 5829 5829 5828 5828 5828 5827 5827 5826 5825 5824 5823 5822 5821 5820 5819 5818 5816 5815 5813 5812 5811 5810 5808 5807 5807 5806 5805 5804 5804 5803 5803 5803 5803 5803 5803 5803 5804 5804 5804 5805
5827 5826 5826 5825 5825 5825 5825 5825 5824 5823 5822 5821 5820 5819 5818 5817 5816 5815 5813 5812 5810 5809 5808 5806 5805 5804 5803 5802 5801 5800 5799 5798 5798 5798 5798 5798 5798 5799 5799 5799 5799 5800 5800
5823 5823 5823 5822 5822 5822 5821 5821 5820 5819 5819 5818 5816 5815 5814 5813 5811 5810 5809 5807 5806 5804 5803 5802 5801 5799 5798 5797 5796 5795 5794 5793 5793 5793 5793 5793 5793 5793 5794 5794 5794 5795 5795
5820 5820 5819 5819 5818 5818 5818 5817 5816 5816 5815 5814 5812 5811 5810 5808 5807 5805 5804 5802 5801 5800 5798 5797 5796 5794 5793 5792 5791 5790 5789 5788 5787 5787 5787 5787 5788 5788 5788 5789 5789 5790 5790
5816 5816 5815 5815 5814 5814 5814 5813 5812 5811 5811 5809 5808 5807 5805 5804 5802 5800 5799 5797 5796 5795 5793 5792 5791 5790 5788 5787 5786 5784 5783 5782 5782 5782 5782 5782 5782 5782 5783 5783 5783 5784 5785
5812 5812 5811 5811 5810 5810 5809 5809 5808 5807 5806 5805 5803 5802 5800 5799 5796 5795 5794 5792 5791 5790 5788 5787 5786 5784 5783 5782 5780 5779 5778 5777 5776 5775 5775 5775 5776 5776 5777 5777 5778 5778 5779
5808 5807 5807 5806 5805 5805 5805 5804 5803 5802 5801 5799 5798 5796 5795 5793 5791 5790 5788 5787 5786 5784 5783 5782 5780 5779 5778 5776 5775 5774 5772 5771 5770 5769 5769 5769 5770 5770 5770 5771 5771 5772 5773
5803 5802 5802 5801 5800 5800 5799 5799 5797 5796 5795 5794 5792 5791 5789 5788 5786 5784 5783 5781 5780 5779 5777 5776 5775 5773 5772 5771 5769 5768 5766 5765 5764 5764 5763 5763 5764 5764 5764 5765 5765 5766 5767
5799 5798 5797 5796 5795 5794 5793 5792 5791 5790 5789 5788 5786 5785 5784 5782 5781 5779 5777 5776 5774 5773 5771 5770 5768 5767 5766 5765 5763 5761 5760 5759 5758 5758 5758 5758 5758 5758 5758 5758 5759 5760 5760
5793 5793 5792 5791 5790 5789 5787 5786 5785 5784 5783 5782 5781 5779 5778 5776 5775 5773 5771 5769 5768 5766 5765 5763 5762 5760 5759 5758 5757 5755 5754 5753 5752 5751 5751 5751 5751 5751 5752 5752 5752 5753 5754
5788 5787 5786 5785 5784 5783 5782 5781 5779 5778 5777 5776 5774 5773 5772 5770 5768 5766 5764 5762 5761 5760 5758 5756 5755 5754 5752 5751 5750 5748 5747 5746 5745 5745 5744 5744 5744 5744 5744 5745 5745 5746 5746
5782 5781 5780 5779 5778 5777 5776 5774 5773 5772 5770 5769 5768 5766 5764 5762 5761 5759 5757 5755 5753 5752 5750 5748 5747 5746 5745 5743 5742 5741 5740 5739 5738 5738 5737 5737 5737 5737 5737 5737 5738 5739 5739
5776 5775 5774 5773 5772 5770 5769 5768 5766 5765 5763 5762 5760 5758 5757 5754 5753 5751 5749 5747 5745 5743 5742 5740 5739 5737 5736 5735 5734 5733 5732 5732 5731 5731 5730 5730 5729 5729 5730 5730 5730 5731 5731
5769 5768 5767 5766 5764 5763 5762 5760 5759 5757 5756 5754 5752 5751 5749 5746 5744 5742 5740 5739 5737 5735 5733 5731 5730 5728 5727 5726 5725 5724 5724 5724 5723 5723 5722 5722 5722 5722 5722 5722 5722 5723 5723
5763 5761 5760 5758 5757 5755 5754 5752 5751 5749 5748 5746 5744 5742 5740 5738 5736 5734 5732 5730 5728 5726 5724 5723 5721 5720 5718 5717 5717 5716 5716 5716 5715 5715 5714 5714 5714 5714 5713 5714 5714 5715 5715
5756 5754 5753 5751 5749 5748 5746 5744 5743 5741 5739 5738 5736 5733 5731 5729 5727 5725 5723 5721 5719 5717 5716 5714 5713 5711 5710 5709 5709 5708 5707 5707 5706 5706 5706 5706 5706 5705 5705 5705 5706 5706 5706
5748 5747 5745 5743 5741 5740 5738 5736 5734 5732 5731 5729 5727 5724 5722 5720 5718 5716 5714 5712 5710 5709 5707 5706 5704 5703 5702 5700 5699 5699 5698 5697 5697 5697 5697 5697 5697 5696 5696 5696 5696 5697 5697
5741 5739 5737 5735 5733 5731 5729 5727 5726 5724 5722 5720 5718 5715 5713 5711 5709 5707 5705 5703 5701 5700 5698 5696 5695 5693 5692 5691 5690 5689 5688 5687 5687 5687 5687 5687 5687 5687 5687 5687 5687 5687 5687
5733 5732 5730 5727 5725 5723 5721 5719 5717 5715 5713 5711 5709 5707 5704 5702 5700 5698 5696 5694 5692 5690 5689 5687 5686 5684 5683 5682 5680 5679 5678 5677 5677 5676 5676 5676 5676 5676 5676 5677 5676 5676 5677
5726 5724 5722 5720 5717 5715 5713 5711 5709 5706 5704 5702 5700 5698 5695 5693 5691 5688 5686 5684 5682 5681 5679 5678 5676 5675 5673 5672 5671 5670 5669 5667 5666 5666 5665 5665 5665 5666 5666 5666 5666 5666 5666
5718 5716 5714 5712 5710 5707 5705 5703 5700 5698 5696 5694 5691 5689 5687 5684 5681 5679 5677 5675 5673 5671 5669 5668 5666 5665 5664 5662 5661 5659 5659 5658 5657 5655 5655 5654 5654 5655 5655 5655 5655 5655 5656
5711 5709 5707 5704 5702 5699 5697 5694 5692 5689 5687 5685 5683 5680 5678 5675 5673 5670 5667 5665 5663 5661 5659 5657 5656 5654 5653 5651 5650 5649 5648 5647 5646 5645 5645 5644 5644 5643 5644 5644 5644 5644 5644